#timestamp,LO_Frequency,Hit 
1503111615.8,286047000.5,N
1503111635.6,286046999.7,N
1503111655.5,286047004.3,P
1503111675.3,286047000.4,N
1503111695.1,286047001.0,N
1503111715.8,286047000.7,N
1503111735.7,286046998.7,N
1503111755.5,286046996.6,N
1503111775.3,286046999.4,N
1503111795.2,286046999.4,N
1503111815.9,286046995.3,N
1503111835.7,286046995.3,N
1503111855.6,286046997.9,N
1503111875.4,286046996.9,N
1503111895.2,286046996.8,N
1503111915.1,286046994.0,N
1503111916.0,286046994.0,N
1503111935.8,286046995.8,N
1503111955.6,286046995.1,N
1503111975.4,286046998.2,N
1503111995.3,286047000.2,N
1503112015.1,286046999.5,N
1503112035.8,286046993.7,N
1503112055.7,286046996.6,N
1503112075.5,286046999.0,N
1503112095.3,286046998.5,N
1503112115.2,286047000.9,N
1503112135.9,286047002.7,N
1503112155.7,286047001.5,N
1503112175.6,286047003.9,N
1503112195.4,286047003.3,N
1503112215.2,286047003.9,N
1503112235.1,286047004.4,N
1503112236.0,286047004.4,N
1503112255.8,286047001.9,N
1503112275.6,286046999.8,N
1503112295.4,286046998.6,N
1503112315.3,286047002.7,N
1503112335.1,286047001.7,N
1503112355.8,286047001.6,N
1503112375.7,286047001.4,N
1503112395.5,286047005.6,N
1503112415.3,286047006.4,N
1503112435.2,286047010.2,N
1503112455.9,286047011.1,N
1503112475.7,286047012.5,N
1503112495.6,286047010.9,N
1503112515.4,286047012.5,N
1503112535.2,286047012.8,N
1503112555.1,286047012.6,N
1503112556.0,286047012.6,N
1503112575.8,286047014.0,N
1503112595.6,286047009.4,N
1503112615.4,286047009.7,N
1503112635.3,286047010.7,N
1503112655.1,286047008.4,N
1503112675.8,286047008.2,N
1503112695.7,286047007.9,N
1503112715.5,286047010.1,N
1503112735.3,286047010.0,N
1503112755.2,286047009.2,N
1503112775.9,286047005.7,N
1503112795.7,286047003.8,N
1503112815.6,286047003.4,N
1503112835.4,286047006.7,N
1503112855.2,286047004.9,N
1503112875.0,286047004.9,N
1503112876.0,286047004.9,N
1503112895.8,286047005.7,N
1503112915.6,286047003.1,N
1503112935.4,286047005.5,N
1503112955.3,286047004.9,N
1503112975.1,286047005.8,N
1503112995.8,286047007.2,N
1503113015.7,286047006.4,N
1503113035.5,286047006.9,N
1503113055.3,286047007.2,N
1503113075.2,286047003.9,N
1503113095.9,286047001.6,N
1503113115.7,286047002.0,N
1503113135.6,286047004.4,N
1503113155.4,286047004.0,N
1503113175.2,286047002.4,N
1503113195.0,286047004.1,N
1503113196.0,286047004.1,N
1503113215.8,286047002.9,N
1503113235.6,286047004.9,N
1503113255.4,286047004.8,N
1503113275.3,286047005.2,N
1503113295.1,286047007.5,P
1503113315.2,286047001.8,N
1503113335.1,286047001.5,N
1503113336.0,286047001.5,N
1503113355.8,286047002.5,N
1503113375.6,286047001.7,N
1503113395.5,286047003.8,N
1503113415.3,286047005.6,N
1503113435.1,286047004.2,N
1503113455.8,286047005.2,N
1503113475.7,286047004.7,N
1503113495.5,286047005.2,N
1503113515.4,286047007.0,P
1503113535.2,286047001.5,N
1503113555.0,286047002.0,N
1503113555.9,286047002.0,N
1503113575.8,286047001.3,N
1503113595.6,286047005.7,N
1503113615.9,286047005.7,N
1503113635.7,286047005.7,N
1503113655.5,286047005.9,N
1503113675.4,286047003.4,N
1503113695.2,286047007.1,P
1503113715.0,286047002.7,N
1503113715.9,286047002.7,N
1503113735.8,286046999.9,N
1503113755.6,286047002.4,N
1503113775.4,286047002.0,N
1503113795.3,286047002.1,N
1503113815.1,286047000.2,N
1503113835.8,286047000.5,N
1503113855.7,286046999.9,N
1503113875.5,286046998.2,N
1503113895.3,286046998.5,N
1503113915.2,286046996.9,N
1503113935.9,286046996.8,N
1503113955.7,286046997.1,N
1503113975.5,286046996.5,N
1503113995.4,286046997.0,N
1503114015.2,286046994.9,N
1503114035.0,286046997.0,N
1503114035.9,286046997.0,N
1503114055.8,286046998.4,N
1503114075.6,286046998.5,N
1503114095.4,286046998.9,N
1503114115.3,286046998.6,N
1503114135.1,286047000.3,N
1503114155.8,286046999.4,N
1503114175.7,286046997.8,N
1503114195.5,286046998.9,N
1503114215.3,286046999.1,N
1503114235.2,286046997.6,N
1503114255.9,286046996.9,N
1503114275.7,286046997.3,N
1503114295.6,286046997.2,N
1503114315.5,286046997.6,N
1503114335.8,286046999.6,N
1503114355.6,286046995.3,N
1503114375.4,286046995.1,P
1503114395.3,286046996.6,N
1503114415.1,286046997.7,N
1503114416.0,286046997.7,N
1503114435.8,286046996.7,P
1503114455.8,286046999.8,N
1503114475.6,286047000.1,N
1503114495.5,286047000.9,N
1503114515.3,286046999.7,N
1503114535.1,286047002.3,N
1503114555.9,286047002.8,N
1503114575.7,286047002.7,N
1503114595.5,286047000.2,N
1503114615.4,286047000.7,N
1503114635.2,286047000.6,N
1503114655.0,286047000.2,N
1503114655.9,286047000.2,N
1503114675.7,286047001.9,N
1503114695.6,286047002.3,N
1503114715.4,286047001.8,N
1503114735.2,286047000.3,N
1503114755.1,286047000.9,N
1503114756.0,286047000.9,N
1503114775.8,286047000.2,N
1503114795.6,286047001.0,N
1503114815.5,286046999.3,N
1503114835.3,286046997.3,N
1503114855.1,286046998.8,N
1503114875.9,286046998.4,N
1503114895.7,286046999.8,N
1503114915.5,286047003.6,N
1503114935.4,286047002.8,N
1503114955.2,286047002.6,N
1503114975.0,286047002.0,N
1503114975.9,286047002.0,N
1503114995.7,286047003.2,N
1503115015.6,286047001.9,N
1503115035.4,286047002.6,N
1503115055.2,286047003.4,N
1503115075.1,286047001.3,N
1503115076.0,286047001.3,N
1503115095.8,286047003.4,N
1503115115.6,286047003.5,N
1503115135.5,286047005.8,P
1503115155.3,286047003.1,N
1503115175.1,286047003.1,N
1503115195.9,286047002.9,N
